| time (UTC) | temp C | wind direction | speed KPH | gust KPH | rain 1hr cm | rain 24hr cm | rain mn cm | humidity % | barometer mb |
| 20260903063804 | 21 | 167 | 0.0 | 0.0 | 0.00 | 0.71 | 0.00 | 100 | 1008.8 |
| 20260903062803 | 21 | 167 | 0.0 | 0.0 | 0.00 | 1.50 | 0.00 | 100 | 1008.8 |
| 20260903062306 | 21 | 174 | 0.0 | 0.0 | 0.00 | 1.70 | 0.00 | 100 | 1008.9 |
| 20260903061303 | 21 | 171 | 0.0 | 0.0 | 0.00 | 1.83 | 0.00 | 100 | 1008.8 |
| 20260903060803 | 21 | 173 | 0.0 | 0.0 | 0.00 | 1.83 | 0.00 | 100 | 1008.9 |
| 20260903055803 | 21 | 169 | 0.0 | 0.0 | 0.00 | 1.88 | 0.00 | 100 | 1008.9 |
| 20260903055306 | 21 | 167 | 0.0 | 0.0 | 0.00 | 2.18 | 0.00 | 100 | 1008.9 |
| 20260903054303 | 21 | 175 | 0.0 | 0.0 | 0.00 | 2.26 | 0.00 | 100 | 1009.0 |
| 20260903052306 | 21 | 173 | 0.0 | 0.0 | 0.00 | 2.26 | 0.00 | 100 | 1009.1 |
| 20260903051803 | 21 | 167 | 0.0 | 0.0 | 0.00 | 2.26 | 0.00 | 100 | 1009.2 |
| 20260903050303 | 21 | 173 | 0.0 | 0.0 | 0.00 | 2.31 | 0.00 | 100 | 1009.2 |
| 20260903045803 | 21 | 0 | 0.0 | 0.0 | 0.00 | 2.31 | 2.31 | 100 | 1009.2 |
| 20260903045306 | 21 | 0 | 0.0 | 0.0 | 0.00 | 2.34 | 2.31 | 100 | 1009.1 |
| 20260903044803 | 21 | 0 | 0.0 | 0.0 | 0.00 | 2.34 | 2.31 | 100 | 1009.1 |
| 20260903044303 | 21 | 0 | 0.0 | 0.0 | 0.00 | 2.34 | 2.31 | 100 | 1009.1 |
| 20260903042803 | 21 | 0 | 0.0 | 0.0 | 0.00 | 2.34 | 2.31 | 100 | 1009.1 |
| 20260903042306 | 21 | 342 | 0.0 | 0.0 | 0.00 | 2.34 | 2.31 | 100 | 1009.1 |
| 20260903041303 | 21 | 306 | 0.0 | 0.0 | 0.00 | 2.34 | 2.31 | 100 | 1009.1 |
| 20260903040804 | 21 | 342 | 0.0 | 0.0 | 0.00 | 2.34 | 2.31 | 100 | 1009.1 |
| 20260903040304 | 21 | 220 | 0.0 | 0.0 | 0.00 | 2.34 | 2.31 | 100 | 1009.2 |
| 20260903035803 | 22 | 204 | 0.0 | 0.0 | 0.00 | 2.34 | 2.31 | 100 | 1009.2 |
| 20260903035306 | 22 | 206 | 0.0 | 0.0 | 0.00 | 2.34 | 2.31 | 100 | 1009.2 |
| 20260903034804 | 22 | 189 | 0.0 | 0.0 | 0.00 | 2.34 | 2.31 | 100 | 1009.3 |
| 20260903034303 | 22 | 186 | 0.0 | 0.0 | 0.00 | 2.34 | 2.31 | 100 | 1009.3 |
| 20260903033803 | 22 | 184 | 0.0 | 0.0 | 0.00 | 2.34 | 2.31 | 100 | 1009.4 |
| 20260903033303 | 22 | 182 | 0.0 | 0.0 | 0.00 | 2.34 | 2.31 | 100 | 1009.4 |
| 20260903032803 | 22 | 186 | 0.0 | 0.0 | 0.00 | 2.34 | 2.31 | 100 | 1009.4 |
| 20260903032305 | 22 | 184 | 0.0 | 0.0 | 0.00 | 2.34 | 2.31 | 100 | 1009.4 |
| 20260903031303 | 22 | 183 | 0.0 | 0.0 | 0.00 | 2.34 | 2.31 | 100 | 1009.5 |
| 20260903030803 | 22 | 172 | 0.0 | 0.0 | 0.00 | 2.34 | 2.31 | 100 | 1009.5 |
| 20260903025804 | 22 | 174 | 0.0 | 0.0 | 0.00 | 2.34 | 2.31 | 100 | 1009.5 |
| 20260903025306 | 23 | 177 | 0.0 | 0.0 | 0.00 | 2.34 | 2.31 | 100 | 1009.4 |
| 20260903024804 | 23 | 177 | 0.0 | 0.0 | 0.00 | 2.34 | 2.31 | 100 | 1009.4 |
| 20260903024303 | 23 | 176 | 0.0 | 0.0 | 0.00 | 2.34 | 2.31 | 100 | 1009.5 |
| 20260903023304 | 23 | 181 | 0.0 | 0.0 | 0.00 | 2.34 | 2.31 | 100 | 1009.5 |
| 20260903022803 | 23 | 175 | 0.0 | 0.0 | 0.00 | 2.34 | 2.31 | 100 | 1009.5 |
| 20260903022306 | 23 | 171 | 0.0 | 0.0 | 0.00 | 2.34 | 2.31 | 100 | 1009.5 |
| 20260903021803 | 23 | 168 | 0.0 | 0.0 | 0.00 | 2.34 | 2.31 | 100 | 1009.3 |
| 20260903021303 | 23 | 187 | 0.0 | 0.0 | 0.00 | 2.34 | 2.31 | 100 | 1009.3 |
| 20260903020803 | 23 | 182 | 0.0 | 0.0 | 0.00 | 2.34 | 2.31 | 100 | 1009.3 |
| 20260903015803 | 24 | 137 | 0.0 | 0.0 | 0.00 | 2.34 | 2.31 | 97 | 1009.2 |
| 20260903015306 | 24 | 102 | 0.0 | 0.0 | 0.00 | 2.34 | 2.31 | 97 | 1009.1 |
| 20260903014803 | 24 | 102 | 0.0 | 0.0 | 0.00 | 2.34 | 2.31 | 97 | 1009.1 |
| 20260903013803 | 25 | 101 | 0.0 | 0.0 | 0.00 | 2.34 | 2.31 | 97 | 1008.9 |
| 20260903012803 | 25 | 101 | 0.0 | 0.0 | 0.00 | 2.34 | 2.31 | 97 | 1008.8 |
| 20260903012306 | 25 | 101 | 0.0 | 0.0 | 0.00 | 2.34 | 2.31 | 97 | 1008.8 |
| 20260903011804 | 25 | 101 | 0.0 | 0.0 | 0.00 | 2.34 | 2.31 | 97 | 1008.8 |
| 20260903011303 | 25 | 101 | 0.0 | 0.0 | 0.00 | 2.34 | 2.31 | 97 | 1008.7 |
| 20260903010804 | 25 | 101 | 0.0 | 0.0 | 0.00 | 2.34 | 2.31 | 97 | 1008.6 |
| 20260903010303 | 26 | 101 | 0.0 | 0.0 | 0.00 | 2.34 | 2.31 | 93 | 1008.6 |
| 20260903005804 | 26 | 101 | 0.0 | 0.0 | 0.00 | 2.34 | 2.31 | 75 | 1008.6 |
| 20260903004303 | 26 | 101 | 0.0 | 0.0 | 0.00 | 2.34 | 2.31 | 75 | 1008.7 |
| 20260903003804 | 26 | 101 | 0.0 | 0.0 | 0.00 | 2.34 | 2.31 | 75 | 1008.7 |
| 20260903003303 | 27 | 101 | 0.0 | 0.0 | 0.00 | 2.34 | 2.31 | 75 | 1008.6 |
| 20260903002804 | 27 | 101 | 0.0 | 0.0 | 0.00 | 2.34 | 2.31 | 75 | 1008.6 |
| 20260903002306 | 28 | 101 | 1.6 | 3.2 | 0.00 | 2.34 | 2.31 | 75 | 1008.6 |
| 20260903001303 | 28 | 101 | 0.0 | 3.2 | 0.00 | 2.34 | 2.31 | 75 | 1008.6 |
| 20260903000804 | 28 | 101 | 0.0 | 1.6 | 0.00 | 2.34 | 2.31 | 75 | 1008.6 |
| 20260903000303 | 28 | 82 | 0.0 | 4.8 | 0.00 | 2.34 | 2.31 | 75 | 1008.6 |
| 20260902235803 | 28 | 52 | 3.2 | 8.0 | 0.00 | 2.34 | 2.31 | 70 | 1008.6 |
| 20260902235305 | 28 | 56 | 1.6 | 4.8 | 0.00 | 2.34 | 2.31 | 70 | 1008.6 |
| 20260902234804 | 29 | 76 | 4.8 | 11.3 | 0.00 | 2.34 | 2.31 | 70 | 1008.6 |
| 20260902234303 | 29 | 76 | 1.6 | 4.8 | 0.00 | 2.34 | 2.31 | 70 | 1008.6 |
| 20260902233803 | 29 | 91 | 3.2 | 4.8 | 0.00 | 2.34 | 2.31 | 70 | 1008.6 |
| 20260902232803 | 29 | 86 | 1.6 | 4.8 | 0.00 | 2.34 | 2.31 | 70 | 1008.6 |
| 20260902232306 | 29 | 74 | 0.0 | 4.8 | 0.00 | 2.34 | 2.31 | 70 | 1008.5 |
| 20260902231803 | 29 | 76 | 1.6 | 8.0 | 0.00 | 2.34 | 2.31 | 70 | 1008.5 |
| 20260902231303 | 30 | 9 | 1.6 | 8.0 | 0.00 | 2.34 | 2.31 | 70 | 1008.5 |
| 20260902230803 | 29 | 319 | 0.0 | 0.0 | 0.00 | 2.34 | 2.31 | 70 | 1008.5 |
| 20260902230303 | 28 | 319 | 0.0 | 0.0 | 0.00 | 2.34 | 2.31 | 70 | 1008.5 |
| 20260902225803 | 29 | 319 | 0.0 | 0.0 | 0.00 | 2.34 | 2.31 | 66 | 1008.5 |
| 20260902225306 | 28 | 319 | 0.0 | 0.0 | 0.00 | 2.34 | 2.31 | 66 | 1008.6 |
| 20260902224803 | 28 | 319 | 0.0 | 0.0 | 0.00 | 2.34 | 2.31 | 66 | 1008.5 |
| 20260902224303 | 29 | 319 | 0.0 | 0.0 | 0.00 | 2.34 | 2.31 | 66 | 1008.5 |
| 20260902223803 | 30 | 319 | 0.0 | 0.0 | 0.00 | 2.34 | 2.31 | 66 | 1008.5 |
| 20260902223303 | 30 | 319 | 0.0 | 0.0 | 0.00 | 2.34 | 2.31 | 66 | 1008.5 |
| 20260902222803 | 29 | 319 | 0.0 | 3.2 | 0.00 | 2.34 | 2.31 | 66 | 1008.6 |
| 20260902222305 | 30 | 319 | 0.0 | 3.2 | 0.00 | 2.34 | 2.31 | 66 | 1008.5 |
| 20260902221803 | 30 | 319 | 0.0 | 0.0 | 0.00 | 2.34 | 2.31 | 66 | 1008.5 |
| 20260902221303 | 30 | 319 | 0.0 | 0.0 | 0.00 | 2.34 | 2.31 | 66 | 1008.5 |
| 20260902220803 | 30 | 319 | 0.0 | 1.6 | 0.00 | 2.34 | 2.31 | 66 | 1008.5 |
| 20260902215803 | 30 | 278 | 1.6 | 4.8 | 0.00 | 2.34 | 2.31 | 63 | 1008.6 |
| 20260902215306 | 30 | 280 | 1.6 | 4.8 | 0.00 | 2.34 | 2.31 | 63 | 1008.6 |
| 20260902214803 | 30 | 113 | 0.0 | 3.2 | 0.00 | 2.34 | 2.31 | 63 | 1008.5 |
| 20260902214303 | 30 | 226 | 1.6 | 4.8 | 0.00 | 2.34 | 2.31 | 63 | 1008.6 |
| 20260902213803 | 30 | 37 | 1.6 | 3.2 | 0.00 | 2.34 | 2.31 | 63 | 1008.6 |
| 20260902213304 | 31 | 183 | 1.6 | 4.8 | 0.00 | 2.34 | 2.31 | 63 | 1008.6 |
| 20260902212803 | 31 | 56 | 3.2 | 4.8 | 0.00 | 2.34 | 2.31 | 63 | 1008.7 |
| 20260902212305 | 31 | 344 | 1.6 | 4.8 | 0.00 | 2.34 | 2.31 | 63 | 1008.7 |
| 20260902211803 | 30 | 356 | 0.0 | 4.8 | 0.00 | 2.34 | 2.31 | 63 | 1008.7 |
| 20260902211303 | 30 | 251 | 4.8 | 8.0 | 0.00 | 2.34 | 2.31 | 63 | 1008.7 |
| 20260902210803 | 31 | 341 | 4.8 | 9.7 | 0.00 | 2.34 | 2.31 | 63 | 1008.7 |
| 20260902210303 | 30 | 151 | 0.0 | 4.8 | 0.00 | 2.34 | 2.31 | 63 | 1008.8 |
| 20260902205306 | 31 | 127 | 3.2 | 8.0 | 0.00 | 2.34 | 2.31 | 68 | 1008.8 |
| 20260902204803 | 30 | 175 | 0.0 | 3.2 | 0.00 | 2.34 | 2.31 | 68 | 1008.9 |
| 20260902204303 | 30 | 307 | 0.0 | 4.8 | 0.00 | 2.34 | 2.31 | 68 | 1009.1 |
| 20260902203804 | 31 | 204 | 3.2 | 4.8 | 0.00 | 2.34 | 2.31 | 68 | 1009.1 |
| 20260902203303 | 31 | 288 | 8.0 | 12.9 | 0.00 | 2.34 | 2.31 | 68 | 1009.1 |
| 20260902202804 | 30 | 157 | 1.6 | 4.8 | 0.00 | 2.34 | 2.31 | 68 | 1009.1 |
| 20260902202306 | 30 | 176 | 1.6 | 9.7 | 0.00 | 2.34 | 2.31 | 68 | 1009.1 |
| 20260902201803 | 30 | 196 | 4.8 | 9.7 | 0.00 | 2.34 | 2.31 | 68 | 1009.2 |
| 20260902201303 | 30 | 225 | 0.0 | 1.6 | 0.00 | 2.34 | 2.31 | 68 | 1009.1 |
| 20260902200803 | 30 | 231 | 3.2 | 8.0 | 0.00 | 2.34 | 2.31 | 68 | 1009.1 |
| 20260902200304 | 30 | 163 | 1.6 | 3.2 | 0.00 | 2.34 | 2.31 | 68 | 1009.1 |
| 20260902195306 | 30 | 139 | 0.0 | 4.8 | 0.00 | 2.34 | 2.31 | 65 | 1009.0 |
| 20260902194804 | 30 | 213 | 3.2 | 8.0 | 0.00 | 2.34 | 2.31 | 65 | 1009.1 |
| 20260902194303 | 30 | 195 | 0.0 | 1.6 | 0.00 | 2.34 | 2.31 | 65 | 1009.2 |
| 20260902193803 | 30 | 190 | 3.2 | 8.0 | 0.00 | 2.34 | 2.31 | 65 | 1009.3 |
| 20260902193303 | 30 | 184 | 1.6 | 4.8 | 0.00 | 2.34 | 2.31 | 65 | 1009.3 |
| 20260902192803 | 30 | 247 | 0.0 | 8.0 | 0.00 | 2.34 | 2.31 | 65 | 1009.4 |
| 20260902192306 | 30 | 118 | 1.6 | 9.7 | 0.00 | 2.34 | 2.31 | 65 | 1009.4 |
| 20260902191803 | 30 | 127 | 1.6 | 8.0 | 0.00 | 2.34 | 2.31 | 65 | 1009.4 |
| 20260902191303 | 29 | 123 | 0.0 | 3.2 | 0.00 | 2.34 | 2.31 | 65 | 1009.5 |
| 20260902190803 | 30 | 141 | 3.2 | 4.8 | 0.00 | 2.34 | 2.31 | 65 | 1009.7 |
| 20260902185804 | 29 | 200 | 0.0 | 4.8 | 0.00 | 2.34 | 2.31 | 72 | 1009.8 |
| 20260902184803 | 29 | 198 | 1.6 | 9.7 | 0.00 | 2.34 | 2.31 | 72 | 1009.9 |
| 20260902184303 | 29 | 173 | 1.6 | 8.0 | 0.00 | 2.34 | 2.31 | 72 | 1009.8 |
| 20260902183804 | 29 | 219 | 0.0 | 4.8 | 0.00 | 2.34 | 2.31 | 72 | 1009.8 |
| 20260902182803 | 29 | 218 | 1.6 | 4.8 | 0.00 | 2.34 | 2.31 | 72 | 1010.0 |
| 20260902182306 | 28 | 230 | 0.0 | 4.8 | 0.00 | 2.34 | 2.31 | 72 | 1010.0 |
| 20260902181303 | 28 | 120 | 1.6 | 4.8 | 0.00 | 2.34 | 2.31 | 72 | 1010.0 |
| 20260902180803 | 28 | 228 | 3.2 | 9.7 | 0.00 | 2.34 | 2.31 | 72 | 1010.2 |
| 20260902180304 | 28 | 168 | 0.0 | 3.2 | 0.00 | 2.34 | 2.31 | 72 | 1010.3 |
| 20260902175307 | 28 | 229 | 1.6 | 4.8 | 0.00 | 2.34 | 2.31 | 74 | 1010.5 |
| 20260902174803 | 28 | 210 | 1.6 | 11.3 | 0.00 | 2.34 | 2.31 | 74 | 1010.6 |
| 20260902174304 | 28 | 205 | 1.6 | 11.3 | 0.00 | 2.34 | 2.31 | 74 | 1010.6 |
| 20260902173804 | 28 | 126 | 3.2 | 9.7 | 0.00 | 2.34 | 2.31 | 74 | 1010.6 |
| 20260902173303 | 28 | 267 | 4.8 | 14.5 | 0.00 | 2.34 | 2.31 | 74 | 1010.7 |
| 20260902172803 | 27 | 218 | 3.2 | 11.3 | 0.00 | 2.34 | 2.31 | 74 | 1010.8 |
| 20260902172308 | 27 | 280 | 4.8 | 19.3 | 0.00 | 2.34 | 2.31 | 74 | 1010.8 |
| 20260902171803 | 27 | 237 | 4.8 | 14.5 | 0.00 | 2.34 | 2.31 | 74 | 1010.9 |
| 20260902171303 | 27 | 182 | 4.8 | 12.9 | 0.00 | 2.34 | 2.31 | 74 | 1010.9 |
| 20260902170803 | 27 | 199 | 3.2 | 9.7 | 0.00 | 2.34 | 2.31 | 74 | 1010.8 |
| 20260902170303 | 27 | 238 | 1.6 | 8.0 | 0.00 | 2.34 | 2.31 | 74 | 1010.9 |
| 20260902165803 | 27 | 185 | 4.8 | 11.3 | 0.00 | 2.34 | 2.31 | 80 | 1010.9 |
| 20260902165308 | 27 | 200 | 1.6 | 4.8 | 0.00 | 2.34 | 2.31 | 80 | 1010.9 |
| 20260902164803 | 26 | 154 | 3.2 | 11.3 | 0.00 | 2.34 | 2.31 | 80 | 1010.9 |
| 20260902164303 | 26 | 221 | 1.6 | 4.8 | 0.00 | 2.34 | 2.31 | 80 | 1010.9 |
| 20260902163803 | 26 | 148 | 6.4 | 11.3 | 0.00 | 2.34 | 2.31 | 80 | 1010.8 |
| 20260902163304 | 26 | 163 | 4.8 | 12.9 | 0.00 | 2.34 | 2.31 | 80 | 1010.8 |
| 20260902162803 | 26 | 191 | 3.2 | 14.5 | 0.00 | 2.34 | 2.31 | 80 | 1010.8 |
| 20260902162306 | 26 | 182 | 3.2 | 12.9 | 0.00 | 2.34 | 2.31 | 80 | 1010.9 |
| 20260902161803 | 26 | 142 | 8.0 | 14.5 | 0.00 | 2.34 | 2.31 | 80 | 1010.9 |
| 20260902161303 | 26 | 162 | 4.8 | 14.5 | 0.00 | 2.34 | 2.31 | 80 | 1010.8 |
| 20260902160803 | 25 | 129 | 1.6 | 9.7 | 0.00 | 2.34 | 2.31 | 80 | 1010.7 |
| 20260902155803 | 25 | 156 | 3.2 | 12.9 | 0.00 | 2.34 | 2.31 | 89 | 1010.6 |
| 20260902155306 | 25 | 158 | 4.8 | 12.9 | 0.00 | 2.34 | 2.31 | 89 | 1010.6 |
| 20260902154303 | 24 | 129 | 4.8 | 11.3 | 0.00 | 2.34 | 2.31 | 89 | 1010.7 |
| 20260902153803 | 24 | 134 | 4.8 | 11.3 | 0.00 | 2.34 | 2.31 | 89 | 1010.8 |
| 20260902153303 | 23 | 147 | 6.4 | 16.1 | 0.00 | 2.34 | 2.31 | 89 | 1010.8 |
| 20260902152803 | 23 | 165 | 4.8 | 16.1 | 0.00 | 2.34 | 2.31 | 89 | 1010.6 |
| 20260902152307 | 23 | 140 | 4.8 | 16.1 | 0.00 | 2.34 | 2.31 | 89 | 1010.8 |
| 20260902151803 | 23 | 146 | 4.8 | 12.9 | 0.00 | 2.34 | 2.31 | 89 | 1010.7 |
| 20260902151303 | 23 | 171 | 8.0 | 16.1 | 0.00 | 2.34 | 2.31 | 89 | 1010.7 |
| 20260902150303 | 22 | 132 | 6.4 | 12.9 | 0.00 | 2.34 | 2.31 | 91 | 1010.8 |
| 20260902145803 | 22 | 167 | 3.2 | 14.5 | 0.00 | 2.34 | 2.31 | 100 | 1010.8 |
| 20260902144803 | 21 | 167 | 1.6 | 11.3 | 0.00 | 2.34 | 2.31 | 100 | 1010.6 |
| 20260902144304 | 21 | 159 | 4.8 | 12.9 | 0.00 | 2.34 | 2.31 | 100 | 1010.6 |
| 20260902143803 | 21 | 116 | 4.8 | 14.5 | 0.00 | 2.34 | 2.31 | 100 | 1010.6 |
| 20260902143303 | 21 | 113 | 4.8 | 14.5 | 0.00 | 2.34 | 2.31 | 100 | 1010.7 |
| 20260902142803 | 21 | 216 | 3.2 | 12.9 | 0.00 | 2.34 | 2.31 | 100 | 1010.9 |
| 20260902142306 | 20 | 146 | 8.0 | 19.3 | 0.00 | 2.34 | 2.31 | 100 | 1011.0 |
| 20260902141803 | 20 | 120 | 6.4 | 16.1 | 0.00 | 2.34 | 2.31 | 100 | 1011.0 |
| 20260902141303 | 20 | 127 | 1.6 | 8.0 | 0.00 | 2.34 | 2.31 | 100 | 1011.0 |
| 20260902140803 | 20 | 142 | 0.0 | 9.7 | 0.00 | 2.34 | 2.31 | 100 | 1011.0 |
| 20260902140303 | 20 | 138 | 3.2 | 11.3 | 0.00 | 2.34 | 2.31 | 100 | 1011.0 |
| 20260902135803 | 20 | 141 | 6.4 | 14.5 | 0.00 | 2.34 | 2.31 | 100 | 1011.0 |
| 20260902135306 | 19 | 134 | 11.3 | 16.1 | 0.00 | 2.34 | 2.31 | 100 | 1010.9 |
| 20260902134803 | 19 | 162 | 0.0 | 9.7 | 0.00 | 2.34 | 2.31 | 100 | 1010.9 |
| 20260902134303 | 19 | 138 | 4.8 | 9.7 | 0.00 | 2.34 | 2.31 | 100 | 1011.0 |
| 20260902133803 | 18 | 131 | 3.2 | 8.0 | 0.00 | 2.34 | 2.31 | 100 | 1011.0 |
| 20260902133303 | 18 | 210 | 3.2 | 8.0 | 0.00 | 2.34 | 2.31 | 100 | 1011.2 |
| 20260902132306 | 18 | 195 | 8.0 | 11.3 | 0.00 | 2.34 | 2.31 | 100 | 1011.3 |
| 20260902131803 | 18 | 195 | 4.8 | 11.3 | 0.00 | 2.34 | 2.31 | 100 | 1011.4 |
| 20260902131304 | 18 | 187 | 4.8 | 11.3 | 0.00 | 2.34 | 2.31 | 100 | 1011.4 |
| 20260902130803 | 18 | 172 | 4.8 | 9.7 | 0.00 | 2.34 | 2.31 | 100 | 1011.4 |
| 20260902130303 | 17 | 95 | 3.2 | 8.0 | 0.00 | 2.34 | 2.31 | 100 | 1011.3 |
| 20260902125804 | 17 | 0 | 1.6 | 9.7 | 0.03 | 2.34 | 2.31 | 100 | 1011.6 |
| 20260902125305 | 17 | 0 | 3.2 | 8.0 | 0.03 | 2.34 | 2.31 | 100 | 1011.6 |
| 20260902124804 | 17 | 0 | 3.2 | 4.8 | 0.03 | 2.34 | 2.31 | 100 | 1011.8 |
| 20260902124303 | 17 | 0 | 1.6 | 4.8 | 0.03 | 2.34 | 2.31 | 100 | 1011.6 |
| 20260902123804 | 17 | 0 | 1.6 | 4.8 | 0.03 | 2.34 | 2.31 | 100 | 1011.3 |
| 20260902123303 | 17 | 0 | 4.8 | 8.0 | 0.03 | 2.34 | 2.31 | 100 | 1011.3 |
| 20260902122305 | 17 | 0 | 11.3 | 19.3 | 0.03 | 2.34 | 2.31 | 100 | 1010.4 |
| 20260902121803 | 17 | 0 | 1.6 | 4.8 | 0.03 | 2.34 | 2.31 | 100 | 1011.0 |
| 20260902121303 | 17 | 0 | 3.2 | 4.8 | 0.03 | 2.34 | 2.31 | 100 | 1010.5 |
| 20260902120303 | 17 | 0 | 1.6 | 4.8 | 0.03 | 2.34 | 2.31 | 100 | 1010.8 |
| 20260902115803 | 17 | 0 | 1.6 | 4.8 | 0.00 | 2.31 | 2.29 | 100 | 1010.8 |
| 20260902115306 | 17 | 0 | 0.0 | 3.2 | 0.00 | 2.31 | 2.29 | 100 | 1011.0 |
| 20260902114803 | 17 | 0 | 3.2 | 9.7 | 0.00 | 2.31 | 2.29 | 100 | 1011.0 |
| 20260902114303 | 17 | 0 | 0.0 | 3.2 | 0.00 | 2.31 | 2.29 | 100 | 1010.8 |
| 20260902113803 | 17 | 0 | 3.2 | 4.8 | 0.00 | 2.31 | 2.29 | 100 | 1010.9 |
| 20260902113303 | 17 | 0 | 1.6 | 4.8 | 0.00 | 2.31 | 2.29 | 100 | 1011.0 |
| 20260902112803 | 17 | 0 | 1.6 | 4.8 | 0.00 | 2.31 | 2.29 | 100 | 1011.2 |
| 20260902112305 | 17 | 0 | 3.2 | 4.8 | 0.00 | 2.31 | 2.29 | 100 | 1011.2 |
| 20260902111803 | 17 | 0 | 1.6 | 4.8 | 0.03 | 2.31 | 2.29 | 100 | 1011.4 |
| 20260902111303 | 17 | 0 | 3.2 | 4.8 | 0.03 | 2.31 | 2.29 | 100 | 1011.3 |
| 20260902110803 | 17 | 0 | 3.2 | 4.8 | 0.03 | 2.31 | 2.29 | 100 | 1011.6 |
| 20260902110303 | 17 | 0 | 0.0 | 4.8 | 0.03 | 2.31 | 2.29 | 100 | 1011.9 |
| 20260902105306 | 17 | 0 | 1.6 | 8.0 | 0.03 | 2.31 | 2.29 | 100 | 1012.2 |
| 20260902104804 | 17 | 0 | 0.0 | 4.8 | 0.03 | 2.31 | 2.29 | 100 | 1012.2 |
| 20260902104303 | 17 | 0 | 1.6 | 4.8 | 0.03 | 2.31 | 2.29 | 100 | 1012.4 |
| 20260902103803 | 17 | 0 | 3.2 | 9.7 | 0.03 | 2.31 | 2.29 | 100 | 1012.8 |
| 20260902103303 | 17 | 0 | 3.2 | 12.9 | 0.03 | 2.31 | 2.29 | 100 | 1013.0 |
| 20260902102804 | 17 | 0 | 1.6 | 8.0 | 0.03 | 2.31 | 2.29 | 100 | 1012.9 |
| 20260902102307 | 17 | 0 | 4.8 | 24.1 | 0.03 | 2.31 | 2.29 | 100 | 1013.1 |
| 20260902101804 | 17 | 0 | 3.2 | 8.0 | 0.00 | 2.29 | 2.26 | 100 | 1013.1 |
| 20260902101303 | 17 | 0 | 1.6 | 9.7 | 0.00 | 2.29 | 2.26 | 100 | 1012.5 |
| 20260902100804 | 17 | 0 | 3.2 | 9.7 | 0.00 | 2.29 | 2.26 | 100 | 1012.4 |
| 20260902100303 | 17 | 0 | 1.6 | 8.0 | 0.00 | 2.29 | 2.26 | 100 | 1012.2 |
| 20260902095804 | 17 | 0 | 1.6 | 4.8 | 0.00 | 2.29 | 2.26 | 100 | 1011.4 |
| 20260902095306 | 17 | 0 | 1.6 | 3.2 | 0.00 | 2.29 | 2.26 | 100 | 1011.2 |
| 20260902094804 | 17 | 0 | 0.0 | 1.6 | 0.00 | 2.29 | 2.26 | 100 | 1010.9 |
| 20260902094304 | 17 | 0 | 0.0 | 1.6 | 0.00 | 2.29 | 2.26 | 100 | 1010.8 |
| 20260902093804 | 17 | 0 | 0.0 | 0.0 | 0.00 | 2.29 | 2.26 | 100 | 1010.7 |
| 20260902093303 | 17 | 0 | 0.0 | 1.6 | 0.00 | 2.29 | 2.26 | 100 | 1010.7 |
| 20260902092803 | 17 | 0 | 1.6 | 8.0 | 0.00 | 2.29 | 2.26 | 100 | 1010.5 |
| 20260902092305 | 17 | 0 | 1.6 | 4.8 | 0.00 | 2.29 | 2.26 | 100 | 1010.5 |
| 20260902091803 | 17 | 0 | 0.0 | 4.8 | 0.00 | 2.29 | 2.26 | 100 | 1010.7 |
| 20260902091303 | 17 | 0 | 1.6 | 4.8 | 0.00 | 2.29 | 2.26 | 100 | 1010.6 |
| 20260902090803 | 17 | 0 | 0.0 | 4.8 | 0.00 | 2.29 | 2.26 | 100 | 1010.7 |
| 20260902090303 | 17 | 0 | 1.6 | 4.8 | 0.00 | 2.29 | 2.26 | 100 | 1010.8 |
| 20260902085803 | 17 | 0 | 3.2 | 4.8 | 0.00 | 2.29 | 2.26 | 100 | 1010.6 |
| 20260902085306 | 17 | 0 | 3.2 | 9.7 | 0.00 | 2.29 | 2.26 | 100 | 1010.6 |
| 20260902084803 | 17 | 0 | 0.0 | 4.8 | 0.00 | 2.29 | 2.26 | 100 | 1011.0 |
| 20260902084303 | 17 | 0 | 3.2 | 9.7 | 0.03 | 2.29 | 2.26 | 100 | 1010.8 |
| 20260902083803 | 17 | 0 | 4.8 | 12.9 | 0.03 | 2.29 | 2.26 | 100 | 1010.5 |
| 20260902083303 | 17 | 0 | 3.2 | 14.5 | 0.03 | 2.29 | 2.26 | 100 | 1010.5 |
| 20260902082803 | 17 | 0 | 1.6 | 4.8 | 0.05 | 2.29 | 2.26 | 100 | 1011.1 |
| 20260902082308 | 17 | 0 | 6.4 | 16.1 | 0.10 | 2.29 | 2.26 | 100 | 1010.5 |
| 20260902081803 | 17 | 0 | 1.6 | 9.7 | 0.10 | 2.29 | 2.26 | 100 | 1011.1 |
| 20260902081303 | 17 | 0 | 9.7 | 19.3 | 0.10 | 2.29 | 2.26 | 100 | 1010.2 |
| 20260902080803 | 17 | 0 | 6.4 | 14.5 | 0.13 | 2.29 | 2.26 | 100 | 1010.8 |
| 20260902080303 | 17 | 0 | 4.8 | 16.1 | 0.13 | 2.29 | 2.26 | 100 | 1010.6 |
| 20260902075803 | 17 | 0 | 4.8 | 16.1 | 0.15 | 2.29 | 2.26 | 100 | 1010.3 |
| 20260902074803 | 17 | 0 | 8.0 | 19.3 | 0.30 | 2.29 | 2.26 | 100 | 1010.0 |
| 20260902074304 | 17 | 0 | 6.4 | 16.1 | 0.38 | 2.26 | 2.24 | 100 | 1010.3 |
| 20260902073803 | 17 | 0 | 3.2 | 8.0 | 0.64 | 2.26 | 2.24 | 100 | 1010.3 |
| 20260902073303 | 17 | 0 | 4.8 | 8.0 | 0.94 | 2.26 | 2.24 | 100 | 1010.7 |
| 20260902072804 | 17 | 0 | 6.4 | 19.3 | 1.40 | 2.24 | 2.21 | 100 | 1010.8 |
| 20260902072309 | 17 | 0 | 8.0 | 16.1 | 1.55 | 2.18 | 2.16 | 100 | 1011.1 |
| 20260902071803 | 17 | 0 | 6.4 | 24.1 | 1.65 | 2.18 | 2.16 | 100 | 1011.2 |
| 20260902071303 | 17 | 0 | 11.3 | 27.4 | 1.68 | 2.18 | 2.16 | 100 | 1011.1 |
| 20260902070303 | 18 | 0 | 12.9 | 22.5 | 1.65 | 2.16 | 2.13 | 100 | 1012.9 |
| 20260902065306 | 18 | 0 | 9.7 | 16.1 | 1.93 | 2.08 | 2.06 | 100 | 1015.4 |
| 20260902064804 | 18 | 0 | 8.0 | 16.1 | 1.91 | 1.98 | 1.96 | 100 | 1016.3 |